Showing default

ATS 6, 7318

Orbit data source: Space-Track

ATS 6, 7318 is a payload satellite owned by GSFC (US) in GEO that was launched on Thu, 30 May 1974 UTC via a TITAN IIIC launch vehicle from the Air Force Eastern Test Range (AFETR). Payload-class satellites include a variety of spacecraft equipped with specific instruments for various scientific and technological missions. These include communications satellites like Starlink; space stations such as the ISS; scientific satellites like the Hubble; Earth observation satellites from companies like Planet Labs, Umbra, and HawkEye 360; GPS; miniature CubeSats for education and research; and military/defense satellites.

Not visible in the next 10 days
Identifier
7318, 1974-039A
Orbit
GEO
Country
Flag of USUS
Related business
Manufacturer
Fairchild
Mission
Non-operational spacecraft
Bus & Motor
ATS F, Unknown motor
Mass
1,357 kg wet, 1,308 kg dry
Launch date (UTC)
1974-05-30 (51 years ago)
Launch vehicle
TITAN IIIC
Launch site
Air Force Eastern Test Range (AFETR)
Object type
Payload
Rocket body
Debris
Shape & HBR
Unknown
Radar Cross Section
Large (>1 m²)

Expand to show TLE details & history
Last TLE update: 15 hours ago

TLE from 15 hours ago
0 ATS 6
1 07318U 74039A   25301.62771010 -.00000206  00000-0  00000-0 0  9996
2 07318   2.5148 255.9157 0034082 334.5690  97.1913  1.01980605119643
Epoch: 2025-10-28T15:03Z
TLE epoch observation values (Epoch: 2025-10-28T15:03:54.152Z)
Latitude
2.41376°
Longitude
64.82206°
Altitude
35,331.934 km
Speed
3.091 km/s
True Right ascension
21h 52m 02s
True Declination
2° 24' 41"
Sunlit
Object was in daylight at epoch
Visualization orbit readout
Latitude
Unknown
Longitude
Unknown
Altitude
Unknown
Speed
Unknown
Apparent Right ascension
Unknown
Apparent Declination
Unknown
Sunlit
N/A
Visualization observer readout
Local Sidereal Time
01:56:09
Azimuth
Unknown
Elevation
Unknown
Doppler factor
Unknown
Orbital elements
Apogee altitude
35,457.431 km
Perigee altitude
35,173.232 km
Semi-major axis
41,693.468 km
Eccentricity
0.00341
Inclination
2.5148°
RAAN
255.9157°
Arg. of periapsis
334.569°
True anomaly
97.57857°
Mean anomaly
97.1913°
Eccentric anomaly
97.38496°
Mean motion
0.25494 °/min
Orbital period
1,412.09 mins
BSTAR
0
Loading maneuver chart data...
Computing Atmospheric mass density...
Loading historical data...
Loading historical data...
Loading historical data...
Loading historical data...
Loading historical data...
Loading historical data...
Loading historical data...
Other satellites on launch #39 in the year 1974 (1974-05-30 UTC)

Documentation

Showing up to 5 results
|